Regional Weather Roundup
Issued by NWS

Home | Current Version | Previous Version | Text Only | Print | Product List | Glossary Off
Versions: 1 2 3 4 5 6 7 8 9 10 11 12 13 14 15 16 17 18 19 20 21 22 23 24 25 26 27 28

000
ASUS45 KSLC 202210
RWRUT

UTAH REGIONAL WEATHER ROUNDUP
NATIONAL WEATHER SERVICE SALT LAKE CITY UT
400 PM MDT SUN MAY 20 2018

UTZ001>011-023>025-202300-

NORTHERN UTAH

CITY           SKY/WX    TMP DP  RH WIND       PRES   REMARKS
BRIGHAM CITY   PTSUNNY   77  31  18 S3        29.88S
HILL AFB       PTSUNNY   72  33  24 S16G25    29.92R
LOGAN          PTSUNNY   75  44  33 VRB3      29.87F
OGDEN          CLOUDY    75  32  20 SE20      29.89S
SALT LAKE CITY LGT RAIN  65  48  54 S18G37    29.95R
TOOELE VALLEY  CLOUDY    68  41  37 SE28G35   29.91R
WENDOVER       CLOUDY    74  39  28 W13G18    29.90S
HEBER CITY     LGT RAIN  57  37  47 S21G29    30.04R
WEST JORDAN    CLOUDY    57  51  80 S13       30.01R

$$

UTZ011>015-024>027-202300-

CENTRAL/NORTHEAST UTAH

CITY           SKY/WX    TMP DP  RH WIND       PRES   REMARKS
PROVO AIRPORT  CLOUDY    64  47  53 E10       29.97
MOAB/CANYONLAN LGT RAIN  75  30  19 NE8G40    29.91R
DELTA          CLOUDY    66  36  32 SE21      29.95R
PRICE          CLOUDY    60  45  57 N17G23    29.99F
RICHFIELD      MOSUNNY   59  46  63 S6        30.06S
ROOSEVELT      CLOUDY    72  32  23 W15G28    29.99S
VERNAL         CLOUDY    76  35  22 S7        29.95F

$$

UTZ013>016-019>022-027-202300-

SOUTHERN UTAH

CITY           SKY/WX    TMP DP  RH WIND       PRES   REMARKS
BRYCE CANYON   CLOUDY    55  39  54 NE24G35   30.09F
CEDAR CITY     CLOUDY    74  36  25 NE18      29.91F
MILFORD        PTSUNNY   73  34  23 SE14G33   29.90R
ST GEORGE      CLOUDY    86  32  14 W16G23    29.77F
HANKSVILLE     CLOUDY    81  28  15 S6        29.88S
KANAB          SUNNY     84  16   8 S10G22    29.92F
BLANDING         N/A     79   9   7 S25G31    30.02F

$$

REGIONAL REPORTS     COLORADO/ARIZONA

CITY           SKY/WX    TMP DP  RH WIND       PRES   REMARKS
CRAIG, CO      CLOUDY    66  43  43 SE9       30.04F
GRAND JUNCTION LGT RAIN  68  39  34 SW31G40   29.97R
RIFLE, CO      CLOUDY    74  31  20 S3        29.96F
MONTROSE, CO   CLOUDY    67  30  25 S14       30.09R
CORTEZ, CO     MOSUNNY   81   8   6 SW18G29   29.96F
COLORADO CITY    N/A     82  19   9 S17G23    29.91F
PAGE, AZ       PTSUNNY   83  27  13 S7        29.85F
GRAND CANYON   MOSUNNY   74  13   9 S18G25    30.03F
KINGMAN, AZ    PTSUNNY   85  26  11 SW22G36   29.86F
FLAGSTAFF, AZ  SUNNY     69  22  16 SW10G24   30.07F

$$

REGIONAL REPORTS    NEVADA/IDAHO/WYOMING

CITY           SKY/WX    TMP DP  RH WIND       PRES   REMARKS
LAS VEGAS, NV  MOSUNNY   92  34  13 SE12G21   29.72F
ELY, NY        PTSUNNY   67  29  24 S5        29.94F
ELKO, NV       CLOUDY    73  38  27 S8        29.87F
POCATELLO, ID  PTSUNNY   72  48  42 N7        29.87F THUNDER
BURLEY, ID     LGT RAIN  64  52  64 W14G22    29.88R
FORT BRIDGER,  MOCLDY    62  32  32 SW24G31   30.14R
EVANSTON, WY   CLOUDY    53  40  61 SE18G25   30.11S
ROCK SPRINGS,  PTSUNNY   64  32  30 CALM      30.05F
KEMMERER, WY   PTSUNNY   63  32  31 CALM      30.09S

$$




USA.gov is the U.S. government's official web portal to all federal, state and local government web resources and services.